{"data":{"norad_id":69006,"epoch":"2026-09-20T01:29:49.282080Z","epoch_age_seconds":56788,"freshness":"FRESH","line1":"1 69006U 26100AC  26263.06237595  .00004093  00000+0  18851-3 0  9997","line2":"2 69006  97.3917 159.1245 0011726  37.1584 323.0461 15.20796528 21222","mean_motion":15.20796528,"eccentricity":0.0011726,"inclination_deg":97.3917,"raan_deg":159.1245,"arg_perigee_deg":37.1584,"mean_anomaly_deg":323.0461,"bstar":0.00018851,"rev_number":2122,"period_min":94.687223010283,"perigee_km":495.36738236558,"apogee_km":511.50604904365,"semimajor_km":6881.5737157046,"source":"CELESTRAK","updated_at":"2026-09-20T09:00:24.627444Z"}}